Simultaneous Nadir Overpasses (SNOs) Predictions

Prediction of SNOs between NOAA-20 and AQUA Satellite Orbit:

Table of predicted SNOs for the next 14.0 days since TLE Epoch: 2/17/2024
Index Date (NOAA-20) Time (NOAA-20) Lat,Lon (NOAA-20) SZA (NOAA-20 ) Date (AQUA) Time (AQUA) Lat,Lon (AQUA) SZA (AQUA ) Distance(km) Time Diff (sec)
1 02/19/2024 11:17:32 81.08, -71.16 100.49 02/19/2024 11:18:36 81.08, -71.19 100.45 0.45 64
2 02/19/2024 12:08:15 -81.10, 96.91 79.64 02/19/2024 12:07:58 -81.10, 96.90 79.63 0.11 17
3 02/22/2024 01:02:11 -81.10, -96.77 80.53 02/22/2024 01:02:13 -81.10, -96.78 80.53 0.32 2
4 02/24/2024 13:56:06 -81.10, 69.87 81.47 02/24/2024 13:56:26 -81.10, 69.72 81.46 2.56 20
5 02/24/2024 14:46:49 81.12,-122.16 98.42 02/24/2024 14:45:47 81.13,-122.09 98.45 1.27 62
6 02/27/2024 02:50:01 -81.10,-123.56 82.43 02/27/2024 02:50:37 -81.11,-123.60 82.44 0.81 36
7 02/27/2024 03:40:45 81.11, 44.00 97.53 02/27/2024 03:39:59 81.11, 44.17 97.53 2.89 46
8 02/29/2024 15:43:56 -81.10, 42.94 83.39 02/29/2024 15:44:47 -81.11, 42.88 83.41 1.13 51



Historial Predications of SNOs between NOAA-20 and AQUA
